Omak, WA

10:41 AM PDT on August 30, 2016 (GMT -0700)
Omak

Weather History for KOMK - March, 2012

Change the Weather History Date:

Saturday, March 31, 2012

  Actual Average Record
Temperature  
Mean Temperature 39 °F 47 °F  
Max Temperature 41 °F 59 °F 76 °F (1994)
Min Temperature 36 °F 35 °F -4 °F (1996)
Degree Days  
Heating Degree Days 26 18  
Month to date heating degree days 770 729  
Since 1 July heating degree days 5840 5590  
Cooling Degree Days 0 0  
Month to date cooling degree days 0 0  
Year to date cooling degree days 0 0  
Moisture  
Dew Point 33 °F    
Average Humidity 71    
Maximum Humidity 92    
Minimum Humidity 49    
Precipitation  
Precipitation 0.16 in 0.03 in 0.46 in (1976)
Month to date precipitation 1.87 1.19  
Year to date precipitation 4.10 4.49  
Sea Level Pressure  
Sea Level Pressure 29.52 in    
Wind  
Wind Speed 6 mph (NW)    
Max Wind Speed 14 mph    
Max Gust Speed 20 mph    
Visibility 10 miles    
Events Rain    
T = Trace of Precipitation, MM = Missing Value Source: NWS Daily Summary

Daily Weather History Graph

Daily Weather History Graph

Search for Another Location

Airport or City:

Trip Planner

Search our weather history database for the weather conditions in past years. The results will help you decide how hot, cold, wet, or windy it might be!

Date:

Astronomy

Mar. 31, 2012 Rise Set
Actual Time 6:36 AM PDT 7:28 PM PDT
Civil Twilight 6:05 AM PDT 7:59 PM PDT
Nautical Twilight 5:27 AM PDT 8:37 PM PDT
Astronomical Twilight 4:47 AM PDT 9:18 PM PDT
Moon 12:31 PM PDT (3/31) 3:07 AM PDT (3/31)
Length of Visible Light 13h 54m
Length of Day
12h 51m
First Quarter, 60% of the Moon is Illuminated
Mar 31
First Quarter
Apr 6
Full
Apr 13
Last Quarter
Apr 21
New
Apr 29
First Quarter

Hourly Weather History & Observations

Time (PDT) Temp. Windchill Dew Point Humidity Pressure Visibility Wind Dir Wind Speed Gust Speed Precip Events Conditions
12:53 AM 42.1 °F 37.7 °F 24.1 °F 49% 29.64 in 10.0 mi South 6.9 mph - N/A   Clear
1:53 AM 39.9 °F 34.5 °F 25.0 °F 55% 29.64 in 10.0 mi South 8.1 mph - N/A   Clear
2:53 AM 39.9 °F 34.5 °F 25.0 °F 55% 29.62 in 10.0 mi South 8.1 mph - N/A   Clear
3:53 AM 39.0 °F 35.7 °F 26.1 °F 60% 29.62 in 10.0 mi SW 4.6 mph - N/A   Mostly Cloudy
4:53 AM 37.0 °F 32.4 °F 27.0 °F 67% 29.63 in 10.0 mi NW 5.8 mph - N/A   Overcast
5:53 AM 37.0 °F 33.3 °F 27.0 °F 67% 29.60 in 10.0 mi WNW 4.6 mph - N/A   Overcast
6:53 AM 37.9 °F 34.4 °F 28.0 °F 68% 29.59 in 10.0 mi WNW 4.6 mph - N/A   Overcast
7:48 AM 39.2 °F - 28.4 °F 65% 29.58 in 10.0 mi Calm Calm - 0.00 in Rain Light Rain
7:53 AM 39.9 °F - 30.0 °F 68% 29.59 in 10.0 mi Calm Calm - 0.00 in Rain Light Rain
8:53 AM 37.0 °F 31.6 °F 33.1 °F 86% 29.58 in 8.0 mi NNW 6.9 mph - 0.03 in Rain Light Rain
9:53 AM 37.0 °F 30.4 °F 34.0 °F 89% 29.56 in 10.0 mi North 9.2 mph - 0.02 in Rain Light Rain
10:46 AM 37.4 °F 29.3 °F 35.6 °F 93% 29.52 in 10.0 mi North 12.7 mph - 0.02 in Rain Light Rain
10:53 AM 37.0 °F 28.9 °F 34.0 °F 89% 29.54 in 10.0 mi North 12.7 mph - 0.02 in Rain Light Rain
11:00 AM 37.4 °F 29.3 °F 33.8 °F 87% 29.51 in 10.0 mi North 12.7 mph - 0.00 in Rain Light Rain
11:53 AM 37.9 °F 30.5 °F 35.1 °F 89% 29.52 in 10.0 mi North 11.5 mph - 0.00 in Rain Light Rain
12:53 PM 37.9 °F 30.5 °F 35.1 °F 89% 29.50 in 10.0 mi NNW 11.5 mph - 0.01 in Rain Light Rain
1:13 PM 37.4 °F 29.8 °F 35.6 °F 93% 29.48 in 10.0 mi NNW 11.5 mph - 0.01 in Rain Light Rain
1:20 PM 37.4 °F 29.8 °F 35.6 °F 93% 29.48 in 10.0 mi NNW 11.5 mph - 0.01 in Rain Light Rain
1:36 PM 37.4 °F 31.4 °F 35.6 °F 93% 29.48 in 10.0 mi North 8.1 mph - 0.01 in   Overcast
1:53 PM 37.9 °F 30.9 °F 35.1 °F 89% 29.49 in 10.0 mi North 10.4 mph - 0.01 in Rain Light Rain
2:53 PM 39.9 °F 34.5 °F 36.0 °F 86% 29.48 in 10.0 mi North 8.1 mph - 0.00 in   Overcast
3:53 PM 39.9 °F 35.1 °F 36.0 °F 86% 29.47 in 10.0 mi North 6.9 mph - 0.00 in Rain Light Rain
4:51 PM 39.2 °F - 35.6 °F 87% 29.45 in 10.0 mi Calm Calm - 0.01 in Rain Light Rain
4:53 PM 39.9 °F 37.8 °F 36.0 °F 86% 29.48 in 10.0 mi NNE 3.5 mph - 0.01 in Rain Light Rain
5:24 PM 39.2 °F - 33.8 °F 81% 29.46 in 10.0 mi Calm Calm - 0.01 in Rain Light Rain
5:31 PM 39.2 °F - 35.6 °F 87% 29.46 in 10.0 mi Calm Calm - 0.01 in Rain Light Rain
5:38 PM 39.2 °F - 35.6 °F 87% 29.47 in 10.0 mi Calm Calm - 0.01 in Rain Light Rain
5:50 PM 39.2 °F - 35.6 °F 87% 29.47 in 10.0 mi Calm Calm - 0.02 in Rain Light Rain
5:53 PM 39.9 °F - 35.1 °F 83% 29.49 in 10.0 mi Calm Calm - 0.02 in Rain Light Rain
6:18 PM 39.2 °F - 35.6 °F 87% 29.47 in 10.0 mi Calm Calm - 0.01 in Rain Light Rain
6:31 PM 39.2 °F - 35.6 °F 87% 29.44 in 10.0 mi Calm Calm - 0.01 in Rain Light Rain
6:53 PM 39.0 °F - 36.0 °F 89% 29.48 in 10.0 mi Calm Calm - 0.01 in   Overcast
7:53 PM 39.0 °F 34.8 °F 36.0 °F 89% 29.50 in 7.0 mi SSE 5.8 mph - 0.02 in Rain Light Rain
8:53 PM 37.9 °F 33.5 °F 37.0 °F 97% 29.51 in 10.0 mi South 5.8 mph - 0.01 in   Overcast
9:53 PM 39.0 °F 34.8 °F 36.0 °F 89% 29.52 in 10.0 mi South 5.8 mph - N/A   Overcast
10:53 PM 39.0 °F 35.7 °F 36.0 °F 89% 29.53 in 10.0 mi SSW 4.6 mph - N/A   Overcast
11:53 PM 39.0 °F 34.8 °F 35.1 °F 86% 29.56 in 10.0 mi SSW 5.8 mph - N/A   Overcast